• MPC Preparation (Info)

  • MPEC 2014-J93 : 2014 JU54

    The following Minor Planet Electronic Circular may be linked-to from your own Web pages, but must not otherwise be redistributed electronically.

    A form allowing access to any MPEC is at the bottom of this page.


    Read MPEC 2014-J92 Read MPEC 2014-J94


    M.P.E.C. 2014-J93                                Issued 2014 May 10, 14:30 UT
    
         The Minor Planet Electronic Circulars contain information on unusual
             minor planets and routine data on comets.  They are published
       on behalf of Commission 20 of the International Astronomical Union by the
              Minor Planet Center, Smithsonian Astrophysical Observatory,
                              Cambridge, MA 02138, U.S.A.
    
                 Prepared using the Tamkin Foundation Computer Network
    
                                  MPC@CFA.HARVARD.EDU
                URL https://www.minorplanetcenter.net/    ISSN 1523-6714
    
                                       2014 JU54
    
    Observations:
         K14J54U* C2014 05 07.38214 17 05 44.17 +11 00 11.1          21.4 VqEJ093G96
         K14J54U  C2014 05 07.38992 17 05 43.25 +11 00 07.1          20.5 VqEJ093G96
         K14J54U  C2014 05 08.32328 17 04 02.39 +10 51 43.5          21.1 VqEJ093G96
         K14J54U  C2014 05 08.33223 17 04 01.42 +10 51 39.2          21.1 VqEJ093G96
         K14J54U  C2014 05 08.40740 17 03 52.86 +10 50 57.5          21.0 RoEJ093926
         K14J54U  C2014 05 08.41951 17 03 51.46 +10 50 50.6          21.3 RoEJ093926
         K14J54U  C2014 05 08.43221 17 03 50.02 +10 50 43.4          21.8 RoEJ093926
         K14J54U  C2014 05 08.56878 17 03 34.917+10 49 28.56         21.6 wLEJ093F51
         K14J54U  C2014 05 08.58045 17 03 33.580+10 49 22.08         21.2 wLEJ093F51
         K14J54U  C2014 05 08.59204 17 03 32.248+10 49 15.60         21.4 wLEJ093F51
         K14J54U  C2014 05 08.60360 17 03 30.926+10 49 09.02         21.2 wLEJ093F51
         K14J54U  C2014 05 09.38719 17 02 04.01 +10 41 34.3          21.2 VqEJ093G96
         K14J54U  C2014 05 09.40553 17 02 01.86 +10 41 23.2          20.5 VqEJ093G96
         K14J54U  C2014 05 09.41469 17 02 00.81 +10 41 18.0          21.1 VqEJ093G96
         K14J54U  C2014 05 10.32232617 00 17.93 +10 32 06.0          20.7 RtEJ093H01
         K14J54U  C2014 05 10.33272517 00 16.69 +10 31 59.5          20.9 RtEJ093H01
         K14J54U  C2014 05 10.33735917 00 16.14 +10 31 56.6          20.6 RtEJ093H01
         K14J54U  C2014 05 10.34301117 00 15.46 +10 31 53.2          20.6 RtEJ093H01
         K14J54U  C2014 05 10.39230 17 00 09.58 +10 31 22.3                qEJ093G96
         K14J54U  C2014 05 10.40014 17 00 08.67 +10 31 17.8          22.5 VqEJ093G96
         K14J54U  C2014 05 10.41151 17 00 07.40 +10 31 10.5          21.9 VqEJ093G96
         K14J54U  C2014 05 10.42002 17 00 06.39 +10 31 05.2          22.9 VqEJ093G96
    
    Observer details:
    926 Tenagra II Observatory.  Observers M. Schwartz, P. R. Holvorcem.  0.81-m
        f/7 Ritchey-Chretien + CCD.
    F51 Pan-STARRS 1, Haleakala.  Observers N. Primak, A. Schultz, T. Goggia,
        M. Willman.  Measurer PS1 Science Consortium.  1.8-m Ritchey-Chretien
        + CCD.
    G96 Mt. Lemmon Survey.  Observers R. A. Kowalski, J. A. Johnson.  Measurers
        E. J. Christensen, A. R. Gibbs, A. D. Grauer, R. E. Hill, J. A. Johnson,
        R. A. Kowalski, S. M. Larson, R. J. Sanders, F. C. Shelly.  1.5-m
        reflector + CCD.
    H01 Magdalena Ridge Observatory, Socorro.  Observer W. H. Ryan.  2.4-m f/8.9
        reflector + CCD.
    
    Orbital elements:
    2014 JU54                                                Earth MOID = 0.0722 AU
    Epoch 2014 May 23.0 TT = JDT 2456800.5                  MPC
    M 118.89161              (2000.0)            P               Q
    n   0.57077212     Peri.   10.62185     -0.13537548     -0.88171440
    a   1.4393317      Node    88.31141     +0.87266319     -0.32211066
    e   0.2685513      Incl.   26.88108     +0.46918273     +0.34470920
    P   1.73           H   19.6           G   0.15           U   8
    Residuals in seconds of arc
    140507 G96  0.5+  0.2-    140508 F51  0.0   0.0     140510 H01  0.0   0.0
    140507 G96  0.3-  0.1-    140508 F51  0.0   0.1+    140510 H01  0.1-  0.1+
    140508 G96  0.5-  0.2-    140508 F51  0.0   0.1+    140510 G96  0.9-  0.3-
    140508 G96  0.2+  0.5+    140509 G96  0.1+  0.1+    140510 G96  0.5-  0.1+
    140508 926  0.2+  0.3+    140509 G96  0.1-  0.1-    140510 G96  0.7+  0.1-
    140508 926  0.1-  0.2+    140509 G96  0.2+  0.1+    140510 G96  0.8+  0.0
    140508 926  0.0   0.1+    140510 H01  0.0   0.1+
    140508 F51  0.0   0.2-    140510 H01  0.1-  0.0
    
    Ephemeris:
    2014 JU54                a,e,i = 1.44, 0.27, 27                  q = 1.0528
    Date    TT    R. A. (2000) Decl.     Delta      r     Elong.  Phase     V
    2014 04 10    17 33 35.5 +12 17 02   0.8805  1.5646   112.3    36.3    21.8
    ...
    2014 04 25    17 23 44.4 +12 09 27   0.8049  1.6128   125.5    30.5    21.5
    ...
    2014 05 03    17 13 04.3 +11 33 18   0.7717  1.6367   133.3    26.6    21.3
    ...
    2014 05 09    17 02 47.4 +10 45 25   0.7525  1.6538   139.2    23.5    21.2
    2014 05 10    17 00 54.7 +10 35 30   0.7498  1.6566   140.2    23.0    21.2
    2014 05 11    16 58 59.4 +10 25 01   0.7474  1.6593   141.1    22.5    21.1
    ...
    2014 05 17    16 46 42.5 +09 09 50   0.7368  1.6754   146.4    19.5    21.0
    ...
    2014 05 25    16 29 03.8 +06 57 35   0.7349  1.6957   151.6    16.5    21.0
    ...
    2014 06 09    15 57 16.8 +01 33 05   0.7740  1.7299   150.2    17.0    21.1
    
    A. U. Tomatic                (C) Copyright 2014 MPC           M.P.E.C. 2014-J93
    

    Read MPEC 2014-J92 Read MPEC 2014-J94


    MPEC number:

    Enter an MPEC number in one of the following forms:

    • 1997-B01 (the full form)
    • J97B01 (the packed version of the full form)
    • B01 (the abbreviated form)